Date String (YYYY-MM-DD hh:mm:ss) UTC,Instrument flags,absolute air pressure of the measurement (hPa),sample flow rate (lpm),inlet stack bypass flow (lpm),air temperature of the measurement (°C),ambient temperature measured by the external sensor (°C),aerosol sample conditioner tube jacket temperature (°C),OPC LED temperature (°C),internal box temperature (°C),relative humidity of the measurement (%),span deviation,mass concentration of particles derived from Lorenz-Mie calculation of OPC scattering (μg/m³),mass concentration of particles derived from Lorenz-Mie calculation of OPC scattering (μg/m³),mass concentration of particles derived from Lorenz-Mie calculation of OPC scattering (μg/m³)
DateTimeUTC,F1_M11,P_M11,Q1_M11,Q2_M11,T1_M11,T2_M11,T3_M11,T4_M11,T5_M11,U1_M11,ZSPAN_M11,X0_M11,X2_M11,X1_M11
2023-12-13 03:00:00,SystemResetWarning,0836.5,4.99,000.00,019.6,018.6,000.0,027.8,020.8,21.3,0001.2,0012.70,0008.13,0007.34
2023-12-13 03:01:00,SystemResetWarning,0836.5,5.00,000.00,019.6,018.6,000.0,027.8,020.8,21.3,0000.9,0013.05,0008.18,0007.34
2023-12-13 03:02:00,SystemResetWarning,0836.5,5.00,000.00,019.5,018.6,000.0,027.8,020.8,21.3,0000.9,0013.76,0008.22,0007.37
2023-12-13 03:03:00,SystemResetWarning,0836.5,5.01,000.00,019.5,018.6,000.0,027.8,020.8,21.3,0001.1,0014.12,0008.24,0007.40
2023-12-13 03:04:00,SystemResetWarning,0836.5,5.00,000.00,019.5,018.6,000.0,027.8,020.8,21.3,0001.5,0014.15,0008.24,0007.43
2023-12-13 03:05:00,SystemResetWarning,0836.5,5.00,000.00,019.5,018.6,000.0,027.8,020.8,21.3,0001.1,0014.15,0008.22,0007.44
2023-12-13 03:06:00,SystemResetWarning,0836.6,5.00,000.00,019.5,018.6,000.0,027.8,020.8,21.3,0000.4,0014.13,0008.19,0007.44
2023-12-13 03:07:00,SystemResetWarning,0836.6,5.00,000.00,019.5,018.6,000.0,027.8,020.8,21.3,0000.0,0014.37,0008.20,0007.43
2023-12-13 03:08:00,SystemResetWarning,0836.6,5.01,000.00,019.5,018.6,000.0,027.8,020.8,21.3,0000.0,0014.42,0008.25,0007.43
2023-12-13 03:09:00,SystemResetWarning,0836.6,5.00,000.00,019.5,018.6,000.0,027.8,020.8,21.3,0000.0,0014.81,0008.28,0007.45
2023-12-13 03:10:00,SystemResetWarning,0836.6,5.00,000.00,019.5,018.6,000.0,027.8,020.8,21.3,0000.0,0014.74,0008.33,0007.48
2023-12-13 03:11:00,SystemResetWarning,0836.6,5.00,000.00,019.5,018.6,000.0,027.8,020.8,21.3,0000.0,0014.81,0008.38,0007.51
2023-12-13 03:12:00,SystemResetWarning,0836.6,5.00,000.00,019.5,018.6,000.0,027.8,020.8,21.3,0000.1,0014.60,0008.42,0007.55
2023-12-13 03:13:00,SystemResetWarning,0836.6,5.00,000.00,019.5,018.6,000.0,027.8,020.8,21.4,0000.9,0014.23,0008.44,0007.57
2023-12-13 03:14:00,SystemResetWarning,0836.6,5.00,000.00,019.5,018.6,000.0,027.8,020.8,21.3,0001.1,0013.91,0008.45,0007.57
2023-12-13 03:15:00,SystemResetWarning,0836.7,5.00,000.00,019.5,018.6,000.0,027.8,020.8,21.4,0001.6,0014.01,0008.51,0007.59
2023-12-13 03:16:00,SystemResetWarning,0836.7,5.00,000.00,019.5,018.6,000.0,027.8,020.8,21.4,0002.0,0013.81,0008.58,0007.61
2023-12-13 03:17:00,SystemResetWarning,0836.7,5.00,000.00,019.5,018.6,000.0,027.8,020.8,21.4,0002.8,0014.12,0008.60,0007.63
2023-12-13 03:18:00,SystemResetWarning,0836.7,5.00,000.00,019.5,018.5,000.0,027.8,020.8,21.4,0002.9,0014.04,0008.61,0007.65
2023-12-13 03:19:00,SystemResetWarning,0836.6,5.00,000.00,019.5,018.6,000.0,027.8,020.8,21.4,0002.6,0014.22,0008.62,0007.67
2023-12-13 03:20:00,SystemResetWarning,0836.7,4.99,000.00,019.5,018.5,000.0,027.8,020.8,21.4,0002.2,0013.92,0008.68,0007.70
2023-12-13 03:21:00,SystemResetWarning,0836.7,5.00,000.00,019.5,018.6,000.0,027.8,020.8,21.4,0002.2,0014.10,0008.69,0007.72
2023-12-13 03:22:00,SystemResetWarning,0836.7,5.00,000.00,019.5,018.6,000.0,027.8,020.8,21.4,0002.4,0014.25,0008.71,0007.73
2023-12-13 03:23:00,SystemResetWarning,0836.7,4.99,000.00,019.5,018.5,000.0,027.8,020.8,21.4,0002.7,0014.20,0008.70,0007.75
2023-12-13 03:24:00,SystemResetWarning,0836.6,5.01,000.00,019.5,018.5,000.0,027.8,020.8,21.4,0002.0,0014.07,0008.71,0007.77
2023-12-13 03:25:00,SystemResetWarning,0836.6,5.00,000.00,019.5,018.5,000.0,027.8,020.8,21.4,0001.9,0014.17,0008.72,0007.80
2023-12-13 03:26:00,SystemResetWarning,0836.7,5.01,000.00,019.5,018.5,000.0,027.8,020.8,21.5,0000.7,0014.24,0008.73,0007.81
2023-12-13 03:27:00,SystemResetWarning,0836.7,5.00,000.00,019.5,018.5,000.0,027.8,020.8,21.4,0000.0,0014.69,0008.71,0007.82
2023-12-13 03:28:00,SystemResetWarning,0836.7,5.00,000.00,019.5,018.6,000.0,027.8,020.7,21.4,0000.4,0014.43,0008.73,0007.84
2023-12-13 03:29:00,SystemResetWarning,0836.6,5.00,000.00,019.5,018.6,000.0,027.8,020.7,21.4,0000.3,0014.42,0008.79,0007.88
2023-12-13 03:30:00,SystemResetWarning,0836.7,4.99,000.00,019.5,018.6,000.0,027.8,020.7,21.5,0000.7,0014.56,0008.86,0007.93
2023-12-13 03:31:00,SystemResetWarning,0836.7,5.00,000.00,019.5,018.6,000.0,027.8,020.8,21.5,0001.3,0014.61,0008.90,0007.98
2023-12-13 03:32:00,SystemResetWarning,0836.7,5.00,000.00,019.5,018.5,000.0,027.8,020.8,21.5,0001.9,0014.62,0008.96,0008.01
2023-12-13 03:33:00,SystemResetWarning,0836.7,4.99,000.00,019.5,018.6,000.0,027.8,020.7,21.5,0001.8,0014.89,0008.99,0008.04
2023-12-13 03:34:00,SystemResetWarning,0836.7,5.00,000.00,019.5,018.6,000.0,027.8,020.7,21.5,0001.3,0015.38,0009.09,0008.06
2023-12-13 03:35:00,SystemResetWarning,0836.7,5.01,000.00,019.5,018.5,000.0,027.8,020.7,21.5,0001.5,0015.20,0009.09,0008.08
2023-12-13 03:36:00,SystemResetWarning,0836.6,5.01,000.00,019.5,018.5,000.0,027.8,020.7,21.5,0001.2,0015.31,0009.14,0008.09
2023-12-13 03:37:00,SystemResetWarning,0836.7,5.00,000.00,019.5,018.5,000.0,027.8,020.7,21.5,0001.4,0015.44,0009.17,0008.11
2023-12-13 03:38:00,SystemResetWarning,0836.7,5.00,000.00,019.5,018.5,000.0,027.7,020.7,21.5,0001.8,0015.50,0009.23,0008.14
2023-12-13 03:39:00,SystemResetWarning,0836.7,4.99,000.00,019.5,018.5,000.0,027.7,020.7,21.5,0002.0,0015.86,0009.21,0008.16
2023-12-13 03:40:00,SystemResetWarning,0836.7,5.00,000.00,019.5,018.5,000.0,027.7,020.7,21.5,0001.5,0015.65,0009.21,0008.17
2023-12-13 03:41:00,SystemResetWarning,0836.8,5.01,000.00,019.5,018.5,000.0,027.7,020.7,21.5,0001.5,0015.64,0009.17,0008.15
2023-12-13 03:42:00,SystemResetWarning,0836.8,5.01,000.00,019.5,018.5,000.0,027.8,020.7,21.5,0001.2,0015.73,0009.17,0008.12
2023-12-13 03:43:00,SystemResetWarning,0836.8,4.99,000.00,019.5,018.5,000.0,027.8,020.7,21.5,0000.6,0016.10,0009.16,0008.13
2023-12-13 03:44:00,SystemResetWarning,0836.8,4.99,000.00,019.5,018.5,000.0,027.7,020.7,21.5,0000.3,0015.86,0009.15,0008.12
2023-12-13 03:45:00,SystemResetWarning,0836.8,4.99,000.00,019.5,018.5,000.0,027.7,020.7,21.5,0000.0,0016.07,0009.09,0008.12
2023-12-13 03:46:00,SystemResetWarning,0836.8,5.00,000.00,019.5,018.5,000.0,027.7,020.7,21.5,0000.0,0017.70,0009.15,0008.13
2023-12-13 03:47:00,SystemResetWarning,0836.8,5.00,000.00,019.5,018.5,000.0,027.7,020.7,21.5,0000.0,0017.60,0009.16,0008.15
2023-12-13 03:48:00,SystemResetWarning,0836.8,5.00,000.00,019.5,018.5,000.0,027.7,020.7,21.5,0000.0,0017.52,0009.14,0008.14
2023-12-13 03:49:00,SystemResetWarning,0836.8,5.00,000.00,019.5,018.5,000.0,027.7,020.7,21.5,0000.0,0017.70,0009.14,0008.14
2023-12-13 03:50:00,SystemResetWarning,0836.8,5.01,000.00,019.5,018.5,000.0,027.7,020.7,21.5,0000.0,0017.05,0009.18,0008.16
2023-12-13 03:51:00,SystemResetWarning,0836.8,5.00,000.00,019.4,018.5,000.0,027.7,020.7,21.5,0000.3,0016.87,0009.19,0008.17
2023-12-13 03:52:00,SystemResetWarning,0836.8,5.00,000.00,019.4,018.5,000.0,027.7,020.7,21.6,0000.2,0016.76,0009.19,0008.19
2023-12-13 03:53:00,SystemResetWarning,0836.8,5.00,000.00,019.4,018.5,000.0,027.7,020.7,21.6,0000.4,0016.71,0009.20,0008.22
2023-12-13 03:54:00,SystemResetWarning,0836.8,5.00,000.00,019.4,018.5,000.0,027.7,020.7,21.6,0000.9,0016.40,0009.19,0008.23
2023-12-13 03:55:00,SystemResetWarning,0836.8,5.00,000.00,019.4,018.5,000.0,027.7,020.7,21.6,0001.0,0016.05,0009.20,0008.25
2023-12-13 03:56:00,SystemResetWarning,0836.8,5.00,000.00,019.4,018.5,000.0,027.7,020.7,21.6,0000.5,0015.60,0009.20,0008.28
2023-12-13 03:57:00,SystemResetWarning,0836.8,5.00,000.00,019.4,018.5,000.0,027.7,020.7,21.6,0000.1,0014.12,0009.17,0008.30
2023-12-13 03:58:00,SystemResetWarning,0836.8,5.00,000.00,019.4,018.5,000.0,027.7,020.7,21.6,0000.3,0014.88,0009.24,0008.33
2023-12-13 03:59:00,SystemResetWarning,0836.8,5.01,000.00,019.4,018.5,000.0,027.7,020.7,21.6,0000.7,0015.86,0009.32,0008.38
